Simultaneous Nadir Overpasses (SNOs) Predictions

Prediction of SNOs between NOAA-20 and NOAA-19 Satellite Orbit:

Table of predicted SNOs for the next 14.0 days since TLE Epoch: 4/6/2024
Index Date (NOAA-20) Time (NOAA-20) Lat,Lon (NOAA-20) SZA (NOAA-20 ) Date (NOAA-19) Time (NOAA-19) Lat,Lon (NOAA-19) SZA (NOAA-19 ) Distance(km) Time Diff (sec)
1 04/09/2024 09:18:55 -73.39,-149.06 114.28 04/09/2024 09:17:42 -73.38,-150.03 114.22 30.85 73
2 04/09/2024 10:09:45 73.58, 17.80 65.93 04/09/2024 10:08:38 73.58, 17.70 65.95 3.15 67
3 04/09/2024 11:00:30 -73.62,-174.97 114.05 04/09/2024 10:59:35 -73.63,-174.91 114.03 2.32 55
4 04/09/2024 11:51:16 73.62, -7.65 65.94 04/09/2024 11:50:35 73.64, -7.64 65.97 2.23 41
5 04/09/2024 12:42:01 -73.66, 159.57 114.03 04/09/2024 12:41:33 -73.64, 159.63 114.04 2.50 28
6 04/09/2024 13:32:47 73.65, -33.11 65.95 04/09/2024 13:32:33 73.65, -33.10 65.95 0.63 14
7 04/09/2024 14:23:31 -73.64, 134.23 114.08 04/09/2024 14:23:31 -73.65, 134.17 114.06 2.24 0
8 04/09/2024 15:14:18 73.69, -58.57 65.97 04/09/2024 15:14:31 73.66, -58.57 65.94 3.30 13
9 04/09/2024 16:05:02 -73.68, 108.77 114.06 04/09/2024 16:05:29 -73.67, 108.71 114.08 2.34 27
10 04/09/2024 16:55:48 73.67, -83.91 65.93 04/09/2024 16:56:29 73.67, -84.03 65.92 3.72 41
11 04/09/2024 17:46:33 -73.71, 83.31 114.05 04/09/2024 17:47:26 -73.73, 83.37 114.05 2.23 53
12 04/09/2024 18:37:19 73.71,-109.37 65.94 04/09/2024 18:38:26 73.73,-109.38 65.94 2.20 67
13 04/09/2024 19:28:08 -73.94, 57.38 113.82 04/09/2024 19:29:20 -73.93, 58.39 113.90 31.16 72



Historial Predications of SNOs between NOAA-20 and NOAA-19
